EN

Hourly Weather Ovchinniki

Today, 5 March, Friday

Time Temperature Precipitation Wind Pressure Humidity
00:00 -7°C° 0 mm 2 mps 732 mmHg 91%
01:00 -6°C° 0 mm 2 mps 732 mmHg 92%
02:00 -7°C° 0 mm 2 mps 733 mmHg 94%
03:00 -7°C° 0 mm 2 mps 733 mmHg 94%
04:00 -8°C° 0 mm 2 mps 733 mmHg 93%
05:00 -8°C° 0 mm 2 mps 733 mmHg 93%
06:00 -8°C° 0 mm 2 mps 733 mmHg 91%
07:00 -8°C° 0 mm 2 mps 734 mmHg 90%
08:00 -8°C° 0 mm 3 mps 734 mmHg 88%
09:00 -7°C° 0 mm 3 mps 734 mmHg 82%
10:00 -6°C° 0 mm 3 mps 735 mmHg 75%
11:00 -5°C° 0 mm 3 mps 735 mmHg 68%
12:00 -5°C° 0.1 mm 3 mps 735 mmHg 64%
13:00 -5°C° 0.1 mm 3 mps 736 mmHg 61%
14:00 -3°C° 0.1 mm 2 mps 736 mmHg 58%
15:00 -4°C° 0.1 mm 2 mps 736 mmHg 63%
16:00 -5°C° 0.1 mm 2 mps 737 mmHg 68%
17:00 -4°C° 0.1 mm 1 mps 737 mmHg 73%
18:00 -6°C° 0 mm 2 mps 737 mmHg 77%
19:00 -7°C° 0 mm 2 mps 738 mmHg 81%
20:00 -8°C° 0 mm 2 mps 738 mmHg 85%
21:00 -9°C° 0 mm 2 mps 738 mmHg 87%
22:00 -9°C° 0 mm 2 mps 739 mmHg 89%
23:00 -9°C° 0 mm 1 mps 739 mmHg 92%

Tomorrow, 6 March, Saturday

Time Temperature Precipitation Wind Pressure Humidity
00:00 -9°C° 0 mm 1 mps 739 mmHg 92%
01:00 -9°C° 0 mm 1 mps 740 mmHg 93%
02:00 -9°C° 0 mm 1 mps 740 mmHg 93%
03:00 -9°C° 0 mm 1 mps 740 mmHg 94%
04:00 -9°C° 0 mm 1 mps 740 mmHg 94%
05:00 -10°C° 0 mm 2 mps 740 mmHg 95%
06:00 -10°C° 0 mm 2 mps 741 mmHg 93%
07:00 -9°C° 0 mm 2 mps 741 mmHg 91%
08:00 -9°C° 0 mm 2 mps 741 mmHg 89%
09:00 -9°C° 0 mm 3 mps 741 mmHg 83%
10:00 -8°C° 0 mm 3 mps 741 mmHg 77%
11:00 -7°C° 0 mm 3 mps 741 mmHg 71%
12:00 -7°C° 0 mm 3 mps 741 mmHg 69%
13:00 -7°C° 0 mm 3 mps 741 mmHg 66%
14:00 -6°C° 0 mm 3 mps 740 mmHg 63%
15:00 -7°C° 0 mm 3 mps 740 mmHg 67%
16:00 -7°C° 0 mm 3 mps 739 mmHg 70%
17:00 -7°C° 0 mm 2 mps 739 mmHg 74%
18:00 -8°C° 0 mm 3 mps 738 mmHg 75%
19:00 -8°C° 0 mm 3 mps 738 mmHg 75%
20:00 -9°C° 0 mm 4 mps 737 mmHg 76%
21:00 -10°C° 0.1 mm 5 mps 736 mmHg 80%
22:00 -8°C° 0.1 mm 5 mps 735 mmHg 84%
23:00 -9°C° 0.1 mm 6 mps 734 mmHg 87%

Day after tomorrow, 7 March, Sunday

Time Temperature Precipitation Wind Pressure Humidity
00:00 -9°C° 0.1 mm 7 mps 733 mmHg 84%
01:00 -8°C° 0.1 mm 7 mps 732 mmHg 81%
02:00 -8°C° 0.1 mm 7 mps 731 mmHg 78%
03:00 -8°C° 0.3 mm 7 mps 729 mmHg 82%
04:00 -8°C° 0.3 mm 7 mps 728 mmHg 86%
05:00 -8°C° 0.3 mm 7 mps 726 mmHg 91%
06:00 -7°C° 0.5 mm 8 mps 725 mmHg 90%
07:00 -7°C° 0.5 mm 8 mps 724 mmHg 90%
08:00 -7°C° 0.5 mm 8 mps 723 mmHg 90%
09:00 -7°C° 0.6 mm 8 mps 724 mmHg 85%
10:00 -8°C° 0.6 mm 7 mps 724 mmHg 80%
11:00 -8°C° 0.6 mm 7 mps 724 mmHg 75%
12:00 -8°C° 0.1 mm 7 mps 725 mmHg 69%
13:00 -8°C° 0.1 mm 7 mps 725 mmHg 62%
14:00 -8°C° 0.1 mm 6 mps 726 mmHg 56%
15:00 -8°C° 0.1 mm 6 mps 725 mmHg 62%
16:00 -8°C° 0.1 mm 5 mps 725 mmHg 68%
17:00 -8°C° 0.1 mm 4 mps 724 mmHg 75%
18:00 -8°C° 0.5 mm 5 mps 724 mmHg 80%
19:00 -8°C° 0.5 mm 5 mps 723 mmHg 86%
20:00 -8°C° 0.5 mm 5 mps 723 mmHg 91%
21:00 -10°C° 0.4 mm 5 mps 723 mmHg 86%
22:00 -10°C° 0.4 mm 4 mps 723 mmHg 81%
23:00 -10°C° 0.4 mm 4 mps 723 mmHg 77%

8 March, Monday

Time Temperature Precipitation Wind Pressure Humidity
00:00 -12°C° 0 mm 5 mps 724 mmHg 79%
01:00 -13°C° 0 mm 5 mps 725 mmHg 82%
02:00 -14°C° 0 mm 5 mps 726 mmHg 85%
03:00 -14°C° 0 mm 5 mps 727 mmHg 85%
04:00 -15°C° 0 mm 5 mps 727 mmHg 85%
05:00 -15°C° 0 mm 5 mps 728 mmHg 85%
06:00 -15°C° 0 mm 5 mps 729 mmHg 84%
07:00 -15°C° 0 mm 5 mps 729 mmHg 84%
08:00 -14°C° 0 mm 5 mps 730 mmHg 84%
09:00 -14°C° 0 mm 5 mps 730 mmHg 82%
10:00 -13°C° 0 mm 5 mps 731 mmHg 80%
11:00 -12°C° 0 mm 5 mps 731 mmHg 78%
12:00 -12°C° 0 mm 5 mps 732 mmHg 77%
13:00 -11°C° 0 mm 5 mps 733 mmHg 77%
14:00 -11°C° 0 mm 5 mps 733 mmHg 77%
15:00 -11°C° 0 mm 4 mps 733 mmHg 79%
16:00 -11°C° 0 mm 4 mps 734 mmHg 81%
17:00 -12°C° 0 mm 3 mps 734 mmHg 83%
18:00 -13°C° 0 mm 3 mps 735 mmHg 86%
19:00 -14°C° 0 mm 3 mps 735 mmHg 88%
20:00 -15°C° 0 mm 3 mps 736 mmHg 90%
21:00 -15°C° 0 mm 3 mps 737 mmHg 90%
22:00 -16°C° 0 mm 3 mps 737 mmHg 90%
23:00 -17°C° 0 mm 3 mps 738 mmHg 91%

9 March, Tuesday

Time Temperature Precipitation Wind Pressure Humidity
00:00 -18°C° 0 mm 3 mps 738 mmHg 92%
01:00 -18°C° 0 mm 3 mps 739 mmHg 93%
02:00 -19°C° 0 mm 3 mps 739 mmHg 94%
03:00 -21°C° 0 mm 3 mps 739 mmHg 94%
04:00 -21°C° 0 mm 3 mps 740 mmHg 95%
05:00 -22°C° 0 mm 3 mps 740 mmHg 95%
06:00 -22°C° 0 mm 3 mps 741 mmHg 93%
07:00 -22°C° 0 mm 3 mps 741 mmHg 91%
08:00 -22°C° 0 mm 3 mps 742 mmHg 90%
09:00 -18°C° 0 mm 2 mps 742 mmHg 85%
10:00 -16°C° 0 mm 2 mps 742 mmHg 80%
11:00 -15°C° 0 mm 2 mps 743 mmHg 76%
12:00 -14°C° 0 mm 2 mps 743 mmHg 74%
13:00 -14°C° 0 mm 3 mps 743 mmHg 71%
14:00 -13°C° 0 mm 3 mps 743 mmHg 69%
15:00 -12°C° 0 mm 2 mps 743 mmHg 74%
16:00 -12°C° 0 mm 2 mps 743 mmHg 78%
17:00 -11°C° 0 mm 1 mps 743 mmHg 83%
18:00 -11°C° 0 mm 1 mps 743 mmHg 85%
19:00 -11°C° 0 mm 1 mps 743 mmHg 88%
20:00 -11°C° 0 mm 1 mps 743 mmHg 90%
21:00 -13°C° 0.4 mm 2 mps 742 mmHg 91%
22:00 -12°C° 0.4 mm 2 mps 742 mmHg 93%
23:00 -12°C° 0.4 mm 2 mps 742 mmHg 94%

10 March, Wednesday

Time Temperature Precipitation Wind Pressure Humidity
00:00 -12°C° 0.6 mm 2 mps 741 mmHg 94%
01:00 -10°C° 0.6 mm 2 mps 741 mmHg 94%
02:00 -12°C° 0.6 mm 3 mps 741 mmHg 94%
03:00 -10°C° 0.6 mm 2 mps 741 mmHg 94%
04:00 -9°C° 0.6 mm 2 mps 740 mmHg 94%
05:00 -9°C° 0.6 mm 2 mps 740 mmHg 95%
06:00 -10°C° 0.5 mm 3 mps 740 mmHg 94%
07:00 -10°C° 0.5 mm 3 mps 740 mmHg 94%
08:00 -10°C° 0.5 mm 3 mps 741 mmHg 94%
09:00 -10°C° 0.3 mm 3 mps 741 mmHg 93%
10:00 -12°C° 0.3 mm 3 mps 741 mmHg 92%
11:00 -12°C° 0.3 mm 3 mps 741 mmHg 91%
12:00 -12°C° 0.2 mm 3 mps 741 mmHg 91%
13:00 -12°C° 0.2 mm 4 mps 741 mmHg 90%
14:00 -14°C° 0.2 mm 4 mps 741 mmHg 90%
15:00 -14°C° 0.1 mm 4 mps 741 mmHg 90%
16:00 -15°C° 0.1 mm 4 mps 741 mmHg 91%
17:00 -15°C° 0.1 mm 3 mps 741 mmHg 92%
18:00 -16°C° 0.2 mm 4 mps 741 mmHg 92%
19:00 -17°C° 0.2 mm 4 mps 741 mmHg 93%
20:00 -17°C° 0.2 mm 4 mps 742 mmHg 93%
21:00 -18°C° 0.1 mm 4 mps 742 mmHg 93%
22:00 -18°C° 0.1 mm 4 mps 741 mmHg 93%
23:00 -18°C° 0.1 mm 4 mps 741 mmHg 93%
Show more

We Need Your Consent

Meteoprog and our Service Providers may store and access personal data such as cookies, device identifiers or other similar technologies on your device and process such data to personalise content and ads, as well as provide social media features and to analyse the traffic.

  • Store and/or access information on your device

    Cookies, device identifiers or other information can be stored or accessed on your device for the purposes indicated above.

  • Personalised ads and content, ad and content measurement, audience insights, and products development

    Ads and content can be personalised based on a profile. More data can be added to better personalise ads and content. Ad and content performance can be measured. Insights about the audience who saw the ads and content can be derived. Such data can be used to develop or improve user’s experience, systems and software.

By clicking ‘I Agree’ you will allow the use of indicated cookies, device identifiers, web beacons or other similar technologies. Your settings can be changed in the browser on your device.

For certain purposes, legitimate interests may be relied on, rather than consent. You can read more about this in our Privacy and Cookie Policy.